EW4071 Weather Reports


time (UTC)temp
C
wind
direction
speed
KPH
gust
KPH
rain 1hr
cm
rain 24hr
cm
rain mn
cm
humidity
%
barometer
mb
20260507144506 14 254 1.6 11.3 0.00 0.00 0.00 64 1017.7
20260507143005 14 270 0.0 11.3 0.00 0.00 0.00 65 1017.7
20260507141635 13 229 4.8 9.7 0.00 0.00 0.00 66 1017.8
20260507140055 12 242 1.6 8.0 0.00 0.00 0.00 72 1018.1
20260507134559 12 255 0.0 0.0 0.00 0.00 0.00 75 1018.1
20260507133049 11 262 0.0 0.0 0.00 0.00 0.00 77 1018.2
20260507131545 11 249 0.0 0.0 0.00 0.00 0.00 75 1018.0
20260507130042 10 249 0.0 0.0 0.00 0.00 0.00 77 1017.9
20260507124541 9 249 0.0 0.0 0.00 0.00 0.00 81 1017.8
20260507123043 8 322 0.0 0.0 0.00 0.00 0.00 87 1017.7
20260507121542 7 322 0.0 0.0 0.00 0.00 0.00 88 1017.5
20260507120044 7 322 0.0 0.0 0.00 0.00 0.00 89 1017.5
20260507114541 6 322 0.0 0.0 0.00 0.00 0.00 89 1017.3
20260507113042 6 322 0.0 0.0 0.00 0.00 0.00 90 1017.3
20260507111534 7 322 0.0 0.0 0.00 0.00 0.00 88 1017.3
20260507110036 7 322 0.0 0.0 0.00 0.00 0.00 87 1017.3
20260507104528 7 322 0.0 0.0 0.00 0.00 0.00 85 1017.3
20260507103026 8 322 0.0 0.0 0.00 0.00 0.00 85 1017.3
20260507101524 8 322 0.0 0.0 0.00 0.00 0.00 83 1017.3
20260507100034 8 322 0.0 0.0 0.00 0.00 0.00 83 1017.3
20260507094522 8 322 0.0 0.0 0.00 0.00 0.00 83 1017.5
20260507093022 8 322 0.0 0.0 0.00 0.00 0.00 82 1017.5
20260507091522 8 322 0.0 0.0 0.00 0.00 0.00 82 1017.6
20260507090017 8 322 0.0 0.0 0.00 0.00 0.00 81 1017.5
20260507084516 8 322 0.0 0.0 0.00 0.00 0.00 81 1017.5
20260507083016 8 322 0.0 0.0 0.00 0.00 0.00 80 1017.4
20260507081513 8 322 0.0 0.0 0.00 0.00 0.00 80 1017.6
20260507080013 8 322 0.0 0.0 0.00 0.00 0.00 78 1017.7
20260507074518 8 322 0.0 0.0 0.00 0.00 0.00 78 1017.6
20260507073010 8 322 0.0 0.0 0.00 0.00 0.00 77 1017.8
20260507071511 8 322 0.0 0.0 0.00 0.00 0.00 76 1018.0
20260507070012 8 322 0.0 0.0 0.00 0.00 0.00 77 1017.8
20260507064506 8 322 0.0 0.0 0.00 0.00 0.00 76 1018.1
20260507063005 8 322 0.0 0.0 0.00 0.00 0.00 76 1018.4
20260507061504 8 322 0.0 0.0 0.00 0.00 0.00 74 1017.9
20260507060005 8 322 0.0 0.0 0.00 0.00 0.00 76 1017.8
20260507054502 8 322 0.0 0.0 0.00 0.00 0.00 74 1018.0
20260507053059 8 322 0.0 0.0 0.00 0.00 0.00 73 1018.2
20260507051556 9 322 0.0 0.0 0.00 0.00 0.00 71 1018.2
20260507050056 10 322 0.0 0.0 0.00 0.00 0.00 67 1017.7
20260507044552 10 322 0.0 0.0 0.00 0.00 0.00 66 1017.2
20260507043051 10 322 0.0 0.0 0.00 0.00 0.00 66 1017.6
20260507041549 10 322 0.0 0.0 0.00 0.00 0.00 66 1017.6
20260507040052 11 322 0.0 0.0 0.00 0.00 0.00 64 1017.6
20260507034605 11 322 0.0 0.0 0.00 0.00 0.00 63 1017.5
20260507033102 11 12 0.0 0.0 0.00 0.00 0.00 61 1017.6
20260507031547 12 12 0.0 0.0 0.00 0.00 0.00 59 1017.3
20260507030046 12 12 0.0 0.0 0.00 0.00 0.00 58 1017.3
20260507024553 12 17 0.0 0.0 0.00 0.00 0.00 57 1017.3
20260507023044 13 83 0.0 0.0 0.00 0.00 0.00 56 1017.0
20260507021540 13 83 0.0 0.0 0.00 0.00 0.00 54 1016.8
20260507020039 13 87 0.0 0.0 0.00 0.00 0.00 52 1016.6
20260507014538 14 347 0.0 0.0 0.00 0.00 0.00 50 1016.4
20260507013040 15 17 0.0 0.0 0.00 0.00 0.00 48 1016.3
20260507011539 15 10 0.0 0.0 0.00 0.00 0.00 46 1016.3
20260507010040 15 34 0.0 0.0 0.00 0.00 0.00 46 1016.2
20260507004536 15 10 0.0 0.0 0.00 0.00 0.00 45 1016.1
20260507003035 15 115 0.0 6.4 0.00 0.00 0.00 43 1016.0
20260507001553 16 3 0.0 0.0 0.00 0.00 0.00 42 1015.8
20260507000034 16 152 0.0 8.0 0.00 0.00 0.00 43 1015.8
20260506234546 16 89 0.0 8.0 0.00 0.00 0.00 44 1015.6
20260506233033 16 43 0.0 11.3 0.00 0.00 0.00 42 1015.5
20260506231536 16 329 0.0 12.9 0.00 0.00 0.00 41 1015.4
20260506230030 17 298 3.2 12.9 0.00 0.00 0.00 41 1015.2
20260506224530 17 126 1.6 20.9 0.00 0.00 0.00 42 1015.2
20260506223031 17 84 3.2 14.5 0.00 0.00 0.00 40 1015.1
20260506221527 17 303 1.6 16.1 0.00 0.00 0.00 40 1014.9
20260506220034 17 353 0.0 14.5 0.00 0.00 0.00 42 1014.9
20260506214524 17 19 1.6 14.5 0.00 0.00 0.00 43 1015.0
20260506213023 17 296 3.2 17.7 0.00 0.00 0.00 43 1015.1
20260506211522 17 92 0.0 12.9 0.00 0.00 0.00 42 1015.1
20260506210019 17 97 6.4 14.5 0.00 0.00 0.00 43 1015.5
20260506204519 17 42 0.0 19.3 0.00 0.00 0.00 45 1015.7
20260506203018 17 97 4.8 22.5 0.00 0.00 0.00 45 1015.7
20260506201517 17 292 3.2 16.1 0.00 0.00 0.00 46 1016.1
20260506200015 16 353 4.8 20.9 0.00 0.00 0.00 43 1016.2
20260506194517 16 321 4.8 25.7 0.00 0.00 0.00 44 1016.2
20260506193012 16 133 3.2 16.1 0.00 0.00 0.00 45 1016.4
20260506191512 16 121 0.0 19.3 0.00 0.00 0.00 45 1016.5
20260506190010 16 14 3.2 19.3 0.00 0.00 0.00 48 1016.5
20260506184508 16 129 1.6 14.5 0.00 0.00 0.00 50 1016.6
20260506183008 16 356 3.2 17.7 0.00 0.00 0.00 48 1016.8
20260506181507 16 184 3.2 14.5 0.00 0.00 0.00 49 1016.9
20260506180006 15 164 3.2 20.9 0.00 0.00 0.00 48 1017.3
20260506174503 15 61 3.2 14.5 0.00 0.00 0.00 47 1017.2
20260506173002 15 67 0.0 22.5 0.00 0.00 0.00 50 1017.6
20260506171606 15 62 3.2 17.7 0.00 0.00 0.00 48 1017.6
20260506170109 15 72 3.2 17.7 0.00 0.00 0.00 51 1017.3
20260506164557 14 115 1.6 19.3 0.00 0.00 0.00 52 1017.4
20260506163055 14 349 6.4 16.1 0.00 0.00 0.00 49 1017.6
20260506161552 14 14 1.6 14.5 0.00 0.00 0.00 53 1017.8
20260506160059 13 42 1.6 24.1 0.00 0.00 0.00 56 1017.5
20260506154548 13 116 4.8 22.5 0.00 0.00 0.00 54 1017.1
20260506153041 12 74 4.8 17.7 0.00 0.00 0.00 55 1017.0
20260506151543 12 20 6.4 16.1 0.00 0.00 0.00 58 1017.1
20260506150036 12 69 3.2 25.7 0.00 0.00 0.00 60 1017.1